Location: Kerguer�zec
(48.4509°N, 4.7600°W)
Time: 16:47:16
(UTC+00:00)

N. Korean satellite - Visible Passes

Search period start: 08 March 2021 00:00
Search period end: 18 March 2021 00:00
Orbit: 451 x 502 km, 97.2° (Epoch: 07 March)

Date Brightness Start Highest point End Pass type
(mag) Time Alt. Az. Time Alt. Az. Time Alt. Az.
08 Mar 9.8 04:45:55 10° NE 04:47:56 14° E 04:49:58 10° SE visible
09 Mar 6.6 05:51:09 10° NNE 05:54:45 83° E 05:58:22 10° SSW visible
10 Mar 8.1 05:24:32 10° NNE 05:27:55 39° E 05:31:20 10° SSE visible
11 Mar 9.4 04:58:16 10° NE 05:00:59 20° E 05:03:43 10° SE visible
12 Mar 10.2 04:33:24 10° E 04:33:57 10° E 04:34:28 10° E visible
12 Mar 6.5 06:04:04 10° N 06:07:39 68° WNW 06:11:17 10° SSW visible
13 Mar 7.4 05:37:17 10° NNE 05:40:51 56° E 05:44:26 10° S visible
14 Mar 8.9 05:10:48 10° NE 05:13:57 27° E 05:17:07 10° SSE visible
15 Mar 9.8 04:44:52 10° NE 04:46:56 14° E 04:49:01 10° SE visible
16 Mar 6.7 05:50:04 10° NNE 05:53:42 82° E 05:57:23 10° S visible
17 Mar 8.2 05:23:24 10° NNE 05:26:50 38° E 05:30:17 10° SSE visible
